BCS4850 EDDP-LJLJ

Flight info

Callsign BCS4850
Flight time N/A
Altitude 39000
Route GOLAT2S GOLAT T202 TABAT M736 RUDNO DCT LAMSI DCT RADLY DCT OFROZ OFROZ1R
Aircraft B738/M-SDE2E3FGHIRWXY/LB1

Departure

Time N/A
Airport Leipzig/Halle Airport (EDDP)

Arrival

Time 2026-05-06 13:29
Airport Ljubljana Jože Pučnik Airport (LJLJ)
Time Latitude Longitude Altitude Speed Heading
2026-05-06 13:04 47.57547 14.47438 38403 ft 400 kts 158°
2026-05-06 13:04 47.55950 14.48709 37604 ft 405 kts 159°
2026-05-06 13:05 47.53425 14.50672 36597 ft 411 kts 159°
2026-05-06 13:05 47.50906 14.52701 35493 ft 417 kts 159°
2026-05-06 13:05 47.48341 14.54782 34571 ft 420 kts 159°
2026-05-06 13:05 47.45871 14.56787 33831 ft 418 kts 160°
2026-05-06 13:06 47.43349 14.58833 33115 ft 411 kts 160°
2026-05-06 13:06 47.40850 14.60850 32412 ft 409 kts 160°
2026-05-06 13:06 47.38357 14.62845 31713 ft 418 kts 159°
2026-05-06 13:06 47.35745 14.64919 31042 ft 434 kts 159°
2026-05-06 13:07 47.33257 14.66892 30281 ft 450 kts 158°
2026-05-06 13:07 47.30494 14.69095 29491 ft 449 kts 157°
2026-05-06 13:07 47.27806 14.71249 28910 ft 430 kts 157°
2026-05-06 13:07 47.25216 14.73331 28310 ft 417 kts 157°
2026-05-06 13:08 47.22745 14.75312 27801 ft 405 kts 157°
2026-05-06 13:08 47.20348 14.77225 27277 ft 395 kts 157°
2026-05-06 13:08 47.17938 14.79138 26764 ft 396 kts 157°
2026-05-06 13:08 47.15473 14.81081 26234 ft 410 kts 157°
2026-05-06 13:09 47.12905 14.83099 25682 ft 425 kts 156°
2026-05-06 13:09 47.10316 14.85144 25084 ft 417 kts 156°
2026-05-06 13:09 47.07802 14.87142 24533 ft 405 kts 156°
2026-05-06 13:09 47.05360 14.89082 23980 ft 393 kts 156°
2026-05-06 13:10 47.02984 14.90962 23441 ft 383 kts 156°
2026-05-06 13:10 47.00669 14.92789 22844 ft 375 kts 157°
2026-05-06 13:10 46.98361 14.94602 22352 ft 380 kts 157°
2026-05-06 13:10 46.96000 14.96447 21810 ft 398 kts 156°
2026-05-06 13:11 46.93546 14.98368 21239 ft 400 kts 156°
2026-05-06 13:11 46.91112 15.00280 20673 ft 396 kts 156°
2026-05-06 13:11 46.88694 15.02181 20130 ft 392 kts 156°
2026-05-06 13:11 46.86309 15.04054 19597 ft 388 kts 156°
2026-05-06 13:12 46.83942 15.05909 19056 ft 384 kts 156°
2026-05-06 13:12 46.81597 15.07743 18541 ft 381 kts 156°
2026-05-06 13:12 46.79270 15.09560 17957 ft 379 kts 156°
2026-05-06 13:12 46.76953 15.11368 17389 ft 375 kts 156°
2026-05-06 13:13 46.74662 15.13154 16886 ft 372 kts 157°
2026-05-06 13:13 46.72417 15.14902 16346 ft 370 kts 156°
2026-05-06 13:13 46.70152 15.16666 15843 ft 366 kts 156°
2026-05-06 13:13 46.67921 15.18400 15305 ft 363 kts 157°
2026-05-06 13:14 46.65613 15.19734 14797 ft 352 kts 174°
2026-05-06 13:14 46.63221 15.19676 14209 ft 344 kts 192°
2026-05-06 13:14 46.60931 15.18759 13649 ft 341 kts 202°
2026-05-06 13:14 46.58749 15.17440 13072 ft 337 kts 205°
2026-05-06 13:15 46.56612 15.16093 12564 ft 332 kts 205°
2026-05-06 13:15 46.54523 15.14833 12090 ft 328 kts 204°
2026-05-06 13:15 46.52451 15.13528 11683 ft 321 kts 204°
2026-05-06 13:15 46.50397 15.12283 11188 ft 320 kts 204°
2026-05-06 13:16 46.48359 15.11016 10765 ft 316 kts 204°
2026-05-06 13:16 46.46385 15.09793 10669 ft 302 kts 204°
2026-05-06 13:16 46.44514 15.08556 10508 ft 290 kts 207°
2026-05-06 13:16 46.42761 15.07226 10427 ft 280 kts 208°
2026-05-06 13:17 46.40910 15.06517 10368 ft 271 kts 189°
2026-05-06 13:17 46.39130 15.05989 10239 ft 259 kts 206°
2026-05-06 13:17 46.37597 15.04703 10174 ft 247 kts 210°
2026-05-06 13:17 46.36117 15.03607 10085 ft 237 kts 206°
2026-05-06 13:18 46.34631 15.02668 9925 ft 230 kts 204°
2026-05-06 13:18 46.33154 15.01768 9648 ft 230 kts 204°
2026-05-06 13:18 46.31694 15.00882 9410 ft 227 kts 205°
2026-05-06 13:18 46.30325 14.99785 9189 ft 224 kts 217°
2026-05-06 13:19 46.29055 14.98412 8919 ft 232 kts 216°
2026-05-06 13:19 46.27718 14.97055 8691 ft 239 kts 213°
2026-05-06 13:19 46.26348 14.95727 8257 ft 241 kts 212°
2026-05-06 13:19 46.24933 14.94355 8332 ft 240 kts 213°
2026-05-06 13:20 46.23517 14.92924 8001 ft 252 kts 217°
2026-05-06 13:20 46.22116 14.91447 7793 ft 246 kts 216°
2026-05-06 13:20 46.20716 14.90070 7596 ft 242 kts 216°
2026-05-06 13:20 46.19325 14.88630 7123 ft 247 kts 217°
2026-05-06 13:21 46.17932 14.87160 6829 ft 250 kts 220°
2026-05-06 13:21 46.16504 14.85733 6424 ft 248 kts 213°
2026-05-06 13:21 46.15123 14.84395 6242 ft 236 kts 218°
2026-05-06 13:21 46.13861 14.83025 6137 ft 221 kts 216°
2026-05-06 13:22 46.12621 14.81778 6055 ft 214 kts 216°
2026-05-06 13:22 46.11415 14.80571 5970 ft 209 kts 216°
2026-05-06 13:22 46.10233 14.79390 5887 ft 204 kts 216°
2026-05-06 13:22 46.09087 14.78238 5731 ft 199 kts 218°
2026-05-06 13:23 46.08289 14.76697 5615 ft 192 kts 251°
2026-05-06 13:23 46.08081 14.74759 5349 ft 199 kts 268°
2026-05-06 13:23 46.08485 14.72833 5180 ft 210 kts 292°
2026-05-06 13:23 46.09350 14.71101 4958 ft 220 kts 300°
2026-05-06 13:24 46.10270 14.69362 4709 ft 213 kts 298°
2026-05-06 13:24 46.11111 14.67691 4447 ft 200 kts 298°
2026-05-06 13:24 46.11912 14.66138 4235 ft 187 kts 299°
2026-05-06 13:24 46.12667 14.64669 4044 ft 177 kts 298°
2026-05-06 13:25 46.13386 14.63290 3874 ft 166 kts 299°
2026-05-06 13:25 46.14066 14.62023 3680 ft 153 kts 296°
2026-05-06 13:25 46.14692 14.60796 3496 ft 152 kts 298°
2026-05-06 13:25 46.15310 14.59606 3294 ft 149 kts 297°
2026-05-06 13:26 46.15920 14.58420 3102 ft 146 kts 297°
2026-05-06 13:26 46.16536 14.57210 2923 ft 154 kts 298°
2026-05-06 13:26 46.17176 14.55954 2703 ft 154 kts 300°
2026-05-06 13:26 46.17801 14.54726 2491 ft 150 kts 300°
2026-05-06 13:27 46.18403 14.53546 2296 ft 144 kts 300°
2026-05-06 13:27 46.18997 14.52378 2101 ft 147 kts 303°
2026-05-06 13:27 46.19617 14.51154 1950 ft 158 kts 303°
2026-05-06 13:27 46.20259 14.49887 1686 ft 152 kts 306°
2026-05-06 13:28 46.20847 14.48688 1441 ft 139 kts 308°
2026-05-06 13:28 46.21447 14.47568 1270 ft 143 kts 308°
2026-05-06 13:28 46.22018 14.46454 1227 ft 127 kts 303°
2026-05-06 13:28 46.22453 14.45608 1248 ft 83 kts 306°
2026-05-06 13:29 46.22640 14.45390 1254 ft 23 kts 338°
2026-05-06 13:29 46.22787 14.45319 1260 ft 22 kts 352°
2026-05-06 13:29 46.22882 14.45366 1262 ft 13 kts 53°
2026-05-06 13:29 46.22902 14.45500 1258 ft 15 kts 54°
2026-05-06 13:30 46.22946 14.45552 1258 ft 0 kts 35°